Starlink 30593

operational
NORAD ID: 58112 Int'l Des: 2023-161 Owner: SPXS Country: US Constellation: starlink
LEOCIRCULAR

Starlink 30593について

説明を読み込み中...

リアルタイム位置

3D地球を読み込み中...

次回通過

高度履歴

Altitude vs Time

uPlot chart will show altitude changes over time

軌道要素

1 58112U 23161R 25347.03987472 .00002586 00000-0 99457-4 0 9990
2 58112 53.1582 208.1140 0001315 92.1681 267.9471 15.30187802121157
Epoch: Dec 13, 2025 • Age: 29 hours

現在のステータス

高度 479.6 km
速度 7.63 km/s
衛星直下点 47.53°N, 159.93°E
打ち上げ日 Oct 21, 2023
運用期間 2.1 years
タイプ internet

技術仕様

分類 Payload
質量 730.00 kg
乾燥質量 700.00 kg
総質量 730.00 kg
長さ 0.30 m
直径 4.10 m
スパン 29.00 m
形状 Box + pan
製造者 SPXS
バスタイプ Starlink V2M
フェーズステータス In Orbit
所有者/国 SPXS/US

大規模コンステレーション

Loading constellations...